Zurück zum Katalog

STARLINK-4064

AktivKommunikationVLEO
NORAD 52665·PAYLOAD·🇺🇸 United States

Gestartet May 18, 2022 von Cape Canaveral Space Force Station

Loading…

Nächste Überflüge (nächste 24 Stunden)

TLE

AktuellSource: CelesTrak SupGP

Epoche: Sep 15, 2026, 01:37 UTC

1 52665C 22053K   26258.06784722 -.00019002  00000+0 -11920-2 0  2581
2 52665  53.1605  23.3376 0001089  90.2632  49.4996 15.08835618    17

Verfolge STARLINK-4064 in Echtzeit mit AllMySat

Download on the App Store